Temp
-11 -11 -10 -10 -9 -9 -9 -9 -9 -8 -7 -8 -7 -7 -7 -7 -7 -6 -6 -6 -7 -7 -7 -6 -6 -6 -6 -6 -5 -5 -5 -5 -5 -4 -4 -4 -4 -4 -5 -5 -5 -5 -5 -5 -5 -5 -5 -6 -6
-12 -11 -10 -10 -9 -9 -10 -9 -9 -8 -7 -8 -8 -8 -8 -8 -8 -7 -7 -7 -7 -7 -7 -7 -6 -6 -6 -6 -5 -5 -5 -5 -5 -5 -5 -5 -5 -5 -5 -5 -6 -6 -6 -6 -6 -6 -6 -6 -6
-13 -11 -11 -10 -10 -9 -10 -10 -9 -9 -8 -8 -9 -9 -8 -7 -7 -7 -7 -8 -8 -7 -7 -7 -7 -6 -6 -6 -6 -6 -5 -5 -5 -5 -6 -6 -6 -6 -6 -6 -6 -6 -6 -6 -6 -6 -6 -6 -6
-12 -12 -11 -10 -9 -10 -11 -10 -9 -9 -9 -9 -9 -9 -8 -7 -8 -8 -8 -8 -8 -8 -7 -7 -7 -6 -6 -6 -6 -6 -6 -6 -6 -6 -6 -6 -6 -6 -6 -6 -6 -6 -6 -6 -6 -6 -6 -7 -7
-12 -12 -11 -10 -10 -11 -11 -11 -9 -9 -9 -9 -9 -9 -8 -8 -8 -8 -8 -8 -8 -8 -8 -7 -7 -7 -7 -6 -6 -6 -7 -7 -6 -6 -6 -6 -6 -6 -6 -6 -6 -6 -6 -6 -6 -6 -7 -7 -7
-13 -12 -11 -10 -10 -12 -11 -11 -10 -9 -10 -9 -9 -9 -8 -8 -8 -8 -8 -8 -8 -8 -8 -8 -7 -7 -7 -6 -6 -6 -7 -7 -7 -7 -7 -6 -6 -6 -6 -6 -7 -7 -7 -7 -7 -7 -7 -7 -8
-13 -13 -12 -11 -12 -13 -13 -11 -10 -9 -10 -10 -9 -9 -9 -8 -8 -8 -8 -8 -8 -8 -8 -8 -8 -7 -7 -7 -7 -7 -7 -7 -7 -7 -7 -7 -7 -7 -7 -7 -7 -7 -7 -7 -7 -7 -7 -8 -8
-13 -13 -12 -12 -13 -13 -13 -13 -11 -9 -10 -10 -10 -9 -9 -9 -9 -9 -8 -9 -9 -9 -8 -8 -8 -7 -7 -7 -7 -7 -7 -7 -7 -7 -7 -7 -7 -7 -7 -7 -7 -7 -8 -8 -8 -8 -8 -8 -9
-14 -13 -13 -12 -12 -12 -13 -13 -13 -11 -10 -10 -10 -9 -10 -9 -9 -9 -9 -9 -9 -9 -8 -8 -8 -8 -8 -8 -8 -8 -7 -7 -7 -7 -7 -7 -8 -8 -8 -8 -8 -8 -8 -8 -8 -8 -9 -9 -9
-14 -13 -13 -13 -13 -13 -12 -13 -12 -11 -12 -11 -11 -10 -10 -9 -10 -10 -9 -9 -9 -9 -9 -8 -8 -8 -8 -8 -8 -8 -8 -7 -7 -7 -8 -8 -8 -8 -8 -8 -8 -8 -8 -9 -9 -9 -9 -9 -9
-15 -13 -14 -14 -13 -13 -13 -13 -13 -12 -13 -11 -11 -11 -10 -10 -10 -10 -10 -9 -9 -9 -9 -9 -9 -9 -8 -8 -8 -8 -8 -8 -8 -8 -8 -8 -8 -8 -8 -8 -9 -9 -9 -9 -9 -9 -9 -9 -10
-16 -15 -15 -15 -14 -13 -13 -13 -13 -13 -13 -12 -11 -10 -10 -10 -10 -10 -10 -9 -9 -9 -9 -9 -9 -9 -9 -8 -8 -8 -8 -8 -9 -9 -8 -8 -8 -9 -9 -9 -9 -9 -10 -10 -10 -10 -10 -10 -10
-16 -16 -16 -16 -14 -14 -13 -13 -13 -13 -13 -13 -11 -11 -11 -10 -10 -10 -10 -10 -10 -10 -9 -9 -9 -9 -9 -8 -8 -9 -9 -9 -9 -9 -9 -9 -9 -9 -9 -9 -10 -10 -10 -10 -10 -10 -10 -10 -10
-17 -16 -17 -16 -14 -14 -14 -14 -14 -14 -13 -13 -12 -11 -12 -11 -11 -10 -10 -10 -10 -10 -9 -9 -9 -9 -9 -9 -9 -9 -9 -9 -9 -9 -9 -9 -9 -10 -10 -10 -10 -10 -10 -10 -10 -11 -11 -11 -11
-17 -17 -17 -17 -15 -15 -14 -14 -14 -14 -14 -13 -13 -12 -12 -12 -11 -11 -11 -10 -10 -10 -10 -9 -9 -9 -9 -9 -9 -9 -9 -9 -10 -9 -10 -10 -10 -10 -10 -10 -10 -10 -10 -10 -11 -11 -11 -12 -12
-17 -17 -17 -16 -16 -16 -15 -14 -14 -15 -14 -14 -13 -13 -12 -12 -12 -11 -11 -11 -10 -10 -10 -10 -10 -9 -9 -9 -9 -9 -10 -10 -10 -10 -10 -10 -10 -10 -10 -10 -10 -10 -10 -10 -10 -11 -11 -11 -11
-18 -17 -17 -16 -16 -16 -16 -14 -15 -14 -14 -13 -14 -13 -13 -12 -12 -12 -12 -11 -11 -10 -10 -10 -10 -9 -9 -10 -10 -10 -10 -10 -10 -10 -10 -10 -10 -10 -10 -10 -11 -11 -11 -11 -11 -11 -11 -11 -11
-16 -17 -17 -17 -16 -16 -16 -15 -16 -15 -14 -14 -14 -14 -13 -13 -13 -12 -12 -11 -11 -11 -11 -10 -10 -11 -11 -10 -9 -10 -10 -10 -10 -10 -10 -10 -11 -11 -11 -11 -10 -11 -11 -11 -11 -11 -11 -11 -12
-18 -18 -17 -17 -17 -17 -16 -16 -15 -15 -15 -15 -14 -14 -13 -13 -13 -12 -12 -12 -12 -11 -11 -11 -10 -10 -10 -11 -11 -11 -11 -10 -10 -10 -10 -10 -11 -11 -11 -11 -11 -11 -11 -11 -12 -12 -12 -12 -12
-18 -18 -17 -17 -17 -17 -17 -16 -16 -15 -14 -15 -15 -14 -14 -13 -12 -12 -12 -11 -12 -12 -11 -11 -11 -11 -10 -10 -10 -10 -11 -11 -11 -11 -11 -11 -10 -10 -11 -11 -11 -11 -11 -12 -12 -12 -12 -12 -13
-17 -17 -17 -17 -17 -17 -17 -15 -15 -15 -14 -14 -15 -15 -14 -14 -13 -12 -12 -12 -12 -12 -11 -11 -11 -11 -11 -11 -11 -11 -11 -11 -11 -11 -12 -12 -11 -11 -10 -10 -11 -11 -12 -11 -12 -12 -12 -13 -13
-17 -17 -18 -18 -17 -17 -17 -16 -16 -15 -15 -14 -15 -15 -15 -14 -13 -12 -12 -12 -12 -11 -11 -11 -11 -11 -11 -11 -11 -11 -11 -11 -11 -11 -11 -12 -12 -12 -11 -11 -10 -11 -12 -12 -12 -12 -12 -13 -13
-18 -18 -18 -18 -17 -17 -17 -16 -15 -15 -15 -14 -14 -15 -15 -14 -13 -13 -12 -12 -11 -11 -11 -11 -11 -11 -11 -11 -11 -11 -11 -11 -11 -11 -11 -11 -12 -12 -12 -12 -11 -11 -11 -12 -12 -13 -13 -13 -13
-18 -18 -18 -18 -18 -17 -17 -17 -15 -15 -15 -15 -15 -15 -14 -14 -13 -13 -13 -12 -12 -12 -11 -11 -11 -11 -11 -11 -11 -11 -11 -11 -11 -11 -11 -11 -11 -12 -12 -13 -13 -12 -12 -12 -13 -13 -13 -13 -14
-18 -18 -18 -19 -18 -17 -17 -17 -15 -15 -15 -15 -15 -15 -14 -14 -14 -14 -13 -12 -12 -12 -12 -11 -11 -11 -11 -11 -12 -11 -11 -11 -11 -11 -11 -11 -11 -11 -12 -12 -13 -13 -13 -13 -13 -13 -14 -14 -14
-18 -19 -18 -18 -17 -17 -18 -17 -15 -16 -15 -16 -16 -15 -15 -15 -14 -14 -14 -13 -13 -12 -12 -11 -11 -11 -11 -11 -11 -11 -11 -11 -11 -11 -11 -12 -12 -12 -12 -12 -12 -13 -13 -13 -14 -14 -14 -14 -14
-18 -18 -19 -19 -18 -18 -18 -17 -16 -16 -16 -16 -17 -16 -15 -14 -14 -14 -13 -13 -13 -12 -12 -12 -12 -12 -12 -12 -12 -12 -11 -11 -11 -12 -12 -12 -12 -12 -12 -12 -13 -13 -13 -14 -14 -14 -14 -14 -15
-18 -18 -19 -19 -18 -18 -17 -17 -17 -16 -16 -17 -17 -16 -15 -15 -14 -14 -14 -13 -13 -13 -12 -12 -12 -12 -12 -12 -12 -12 -11 -12 -12 -12 -12 -12 -12 -13 -13 -13 -13 -13 -13 -13 -13 -14 -14 -15 -16
-18 -18 -19 -19 -19 -18 -18 -17 -17 -17 -16 -16 -16 -16 -16 -15 -14 -14 -14 -13 -13 -13 -13 -13 -13 -12 -12 -12 -12 -12 -12 -12 -12 -12 -12 -13 -13 -13 -13 -13 -13 -13 -13 -13 -14 -14 -14 -15 -16
-18 -18 -19 -19 -19 -19 -18 -17 -17 -17 -17 -16 -16 -16 -16 -16 -15 -14 -14 -14 -14 -13 -13 -13 -13 -12 -12 -12 -12 -13 -12 -12 -13 -13 -13 -13 -13 -13 -13 -13 -13 -13 -14 -14 -14 -14 -14 -15 -17
Height
5813 5818 5824 5830 5837 5841 5845 5847 5849 5854 5858 5864 5869 5871 5873 5878 5880 5883 5885 5886 5888 5889 5891 5892 5894 5896 5897 5897 5898 5899 5900 5900 5901 5901 5901 5901 5901 5901 5901 5901 5900 5900 5899 5898 5898 5897 5896 5895 5894
5804 5810 5816 5822 5831 5837 5842 5842 5848 5852 5858 5863 5866 5865 5869 5873 5877 5879 5885 5885 5886 5888 5889 5891 5892 5894 5895 5896 5897 5898 5898 5899 5899 5899 5899 5900 5899 5899 5899 5899 5899 5898 5897 5896 5895 5894 5893 5892 5891
5796 5801 5810 5816 5825 5834 5838 5837 5842 5849 5855 5858 5861 5860 5864 5873 5875 5876 5882 5883 5884 5886 5887 5889 5890 5892 5894 5895 5895 5896 5897 5897 5897 5897 5898 5898 5897 5897 5897 5897 5896 5895 5894 5893 5892 5891 5891 5890 5889
5791 5797 5802 5809 5820 5830 5830 5832 5836 5845 5850 5854 5855 5857 5863 5869 5872 5874 5880 5880 5883 5883 5885 5887 5889 5890 5891 5893 5894 5894 5894 5895 5895 5895 5895 5895 5895 5895 5894 5893 5893 5893 5892 5891 5890 5889 5888 5887 5886
5784 5790 5796 5804 5816 5824 5822 5824 5832 5841 5844 5849 5850 5854 5860 5864 5868 5870 5875 5878 5880 5880 5882 5884 5886 5888 5889 5890 5891 5892 5893 5893 5893 5893 5893 5893 5892 5892 5891 5890 5890 5890 5889 5888 5887 5886 5885 5884 5883
5776 5780 5792 5803 5813 5815 5814 5819 5826 5835 5839 5845 5846 5851 5857 5860 5864 5867 5871 5877 5878 5878 5879 5882 5883 5884 5886 5888 5889 5890 5890 5891 5891 5890 5889 5889 5889 5889 5888 5888 5887 5886 5885 5885 5884 5884 5883 5881 5880
5768 5775 5788 5796 5802 5801 5806 5813 5821 5827 5838 5841 5839 5847 5853 5856 5859 5864 5868 5873 5874 5875 5877 5880 5881 5882 5883 5885 5886 5887 5887 5888 5888 5887 5886 5886 5885 5885 5884 5884 5883 5883 5882 5882 5881 5880 5880 5878 5877
5761 5769 5777 5782 5787 5796 5803 5804 5814 5822 5832 5834 5833 5842 5850 5853 5858 5861 5863 5868 5870 5871 5874 5876 5878 5879 5880 5881 5882 5882 5883 5884 5884 5884 5883 5883 5881 5880 5881 5881 5880 5879 5878 5878 5877 5876 5875 5874 5873
5753 5759 5768 5778 5784 5798 5792 5795 5805 5816 5822 5827 5828 5837 5844 5849 5853 5856 5858 5863 5867 5867 5869 5872 5873 5875 5876 5877 5878 5878 5879 5880 5880 5880 5880 5879 5878 5878 5877 5877 5876 5875 5875 5874 5873 5872 5870 5869 5868
5744 5754 5769 5778 5784 5785 5786 5791 5797 5809 5814 5821 5825 5833 5840 5844 5849 5852 5854 5857 5861 5864 5865 5868 5869 5870 5872 5873 5874 5875 5875 5876 5876 5875 5875 5875 5876 5875 5874 5873 5872 5871 5871 5870 5868 5867 5867 5865 5864
5736 5754 5764 5765 5774 5774 5783 5789 5791 5802 5810 5813 5820 5826 5835 5837 5843 5846 5848 5852 5855 5860 5861 5864 5865 5866 5868 5868 5869 5870 5871 5871 5872 5870 5870 5871 5871 5870 5870 5869 5868 5867 5866 5864 5863 5862 5861 5860 5860
5733 5741 5749 5758 5760 5767 5777 5782 5788 5795 5801 5806 5813 5820 5827 5830 5836 5840 5843 5847 5850 5854 5857 5859 5861 5862 5863 5865 5864 5867 5867 5867 5866 5866 5866 5865 5867 5867 5866 5865 5864 5862 5861 5860 5859 5858 5857 5856 5855
5726 5734 5741 5746 5755 5764 5772 5776 5782 5788 5795 5801 5807 5815 5822 5824 5830 5834 5836 5841 5845 5848 5850 5853 5855 5858 5859 5860 5861 5861 5861 5861 5861 5861 5862 5861 5862 5862 5861 5859 5858 5857 5856 5854 5853 5852 5852 5851 5850
5724 5725 5729 5735 5747 5755 5761 5769 5775 5782 5789 5794 5800 5807 5815 5819 5822 5827 5831 5835 5839 5841 5844 5846 5849 5851 5853 5855 5855 5856 5856 5856 5855 5856 5856 5857 5856 5856 5855 5853 5852 5851 5848 5849 5848 5846 5846 5845 5844
5712 5717 5725 5730 5746 5753 5758 5764 5773 5776 5782 5789 5795 5802 5808 5813 5817 5822 5825 5828 5833 5835 5838 5839 5843 5844 5846 5848 5849 5849 5851 5851 5851 5851 5851 5850 5849 5849 5848 5847 5846 5845 5844 5842 5843 5842 5841 5839 5837
5706 5714 5717 5732 5739 5747 5754 5763 5766 5770 5773 5782 5790 5796 5801 5806 5810 5815 5819 5822 5825 5829 5833 5835 5835 5837 5841 5842 5842 5843 5843 5845 5845 5844 5844 5843 5842 5841 5841 5840 5840 5838 5838 5836 5834 5834 5833 5831 5829
5700 5710 5718 5726 5736 5741 5747 5757 5760 5764 5770 5777 5783 5789 5794 5799 5804 5808 5812 5816 5818 5822 5828 5831 5832 5833 5834 5835 5836 5835 5837 5838 5838 5838 5837 5836 5836 5835 5834 5833 5832 5831 5829 5828 5827 5825 5824 5823 5821
5708 5715 5719 5723 5731 5735 5741 5750 5754 5759 5764 5771 5777 5783 5788 5794 5799 5802 5806 5810 5814 5818 5820 5824 5826 5826 5826 5827 5829 5830 5829 5830 5831 5830 5830 5831 5831 5828 5825 5824 5823 5822 5821 5820 5818 5817 5815 5814 5811
5699 5705 5710 5717 5723 5727 5736 5741 5746 5751 5758 5765 5771 5776 5781 5786 5790 5796 5801 5805 5808 5812 5814 5815 5816 5819 5822 5823 5823 5823 5824 5822 5822 5821 5822 5821 5819 5819 5818 5818 5815 5813 5812 5810 5809 5807 5805 5803 5800
5693 5699 5708 5710 5717 5722 5726 5734 5740 5744 5752 5758 5764 5769 5774 5778 5783 5789 5795 5799 5803 5804 5805 5807 5808 5809 5811 5813 5815 5816 5817 5818 5816 5814 5811 5809 5808 5809 5809 5808 5806 5803 5802 5801 5799 5797 5795 5793 5790
5691 5698 5702 5706 5713 5718 5722 5727 5735 5742 5745 5751 5757 5761 5767 5771 5775 5781 5786 5792 5795 5795 5797 5799 5801 5802 5802 5804 5805 5806 5806 5808 5810 5809 5807 5803 5800 5797 5796 5796 5795 5793 5791 5790 5788 5786 5784 5782 5780
5688 5693 5695 5700 5709 5714 5717 5721 5726 5733 5738 5742 5750 5755 5760 5765 5768 5775 5779 5783 5785 5786 5789 5792 5793 5794 5794 5795 5795 5796 5797 5797 5798 5799 5798 5796 5792 5789 5786 5783 5784 5783 5781 5779 5776 5775 5774 5770 5768
5683 5686 5690 5696 5701 5706 5710 5714 5724 5726 5733 5738 5743 5749 5753 5758 5763 5766 5771 5773 5778 5778 5781 5783 5784 5785 5785 5786 5787 5788 5788 5789 5787 5786 5787 5786 5783 5780 5777 5774 5772 5772 5770 5768 5765 5762 5760 5759 5757
5680 5683 5687 5690 5692 5695 5705 5708 5715 5722 5728 5731 5735 5742 5746 5750 5755 5759 5762 5766 5768 5770 5772 5773 5775 5776 5778 5778 5779 5780 5779 5779 5778 5777 5776 5775 5773 5771 5768 5765 5763 5761 5759 5756 5754 5750 5746 5744 5742
5675 5678 5681 5684 5684 5692 5698 5698 5711 5715 5719 5724 5728 5732 5738 5743 5746 5751 5754 5757 5759 5762 5764 5765 5766 5768 5770 5770 5769 5769 5769 5769 5769 5767 5766 5764 5762 5761 5760 5758 5754 5750 5748 5745 5741 5738 5734 5730 5727
5672 5674 5677 5678 5682 5689 5691 5694 5702 5708 5713 5716 5721 5726 5730 5734 5739 5743 5746 5748 5751 5753 5755 5757 5758 5759 5759 5759 5759 5760 5760 5760 5759 5757 5755 5754 5752 5749 5749 5747 5744 5740 5735 5732 5729 5725 5721 5717 5712
5667 5667 5672 5674 5676 5679 5685 5691 5695 5701 5706 5711 5713 5719 5722 5727 5731 5734 5736 5739 5741 5744 5745 5747 5748 5748 5749 5750 5750 5750 5750 5750 5749 5747 5745 5743 5741 5739 5737 5735 5731 5728 5725 5720 5716 5712 5708 5703 5697
5666 5668 5668 5668 5670 5674 5680 5684 5689 5694 5699 5703 5707 5712 5716 5719 5722 5724 5727 5729 5732 5733 5735 5737 5738 5739 5740 5740 5741 5741 5741 5740 5739 5737 5735 5733 5731 5728 5726 5723 5720 5717 5714 5711 5706 5701 5695 5689 5682
5661 5661 5662 5665 5666 5670 5675 5680 5685 5688 5691 5696 5701 5703 5708 5711 5713 5716 5718 5721 5722 5723 5726 5728 5729 5730 5731 5731 5732 5731 5731 5731 5729 5727 5725 5723 5721 5718 5716 5713 5710 5707 5704 5699 5694 5689 5682 5674 5665
5655 5656 5659 5659 5662 5666 5669 5675 5680 5683 5686 5689 5694 5698 5701 5704 5706 5708 5711 5713 5714 5716 5717 5719 5720 5721 5722 5723 5723 5722 5721 5721 5719 5716 5715 5714 5711 5709 5706 5704 5701 5697 5693 5688 5684 5678 5670 5662 5652
Wind_Speed
51 48 47 45 43 40 36 37 38 36 35 29 29 28 29 23 23 25 19 12 14 14 15 13 11 10 9 9 8 9 9 10 11 12 12 13 14 15 16 17 17 16 16 16 16 17 17 17 17
53 52 50 49 46 42 37 38 38 36 32 27 28 29 26 25 22 21 17 15 14 15 14 12 11 11 10 10 10 10 11 12 13 13 13 14 15 16 17 17 17 17 17 17 17 17 17 18 19
56 55 53 52 48 42 37 41 38 36 33 30 32 32 32 25 23 23 20 19 17 16 16 14 13 13 12 12 13 14 14 14 13 13 14 15 16 17 16 17 17 18 18 18 18 17 18 19 19
59 59 58 55 50 42 40 44 44 38 33 33 34 34 31 26 25 24 18 19 17 19 18 17 17 16 16 15 15 16 17 15 15 15 16 17 17 17 18 19 20 20 19 18 18 18 19 20 20
61 62 61 58 51 45 47 45 47 41 38 36 36 35 32 29 27 25 23 22 20 21 20 19 19 19 19 18 17 16 16 16 17 18 18 18 18 19 20 20 19 19 19 19 18 19 19 20 20
54 61 59 57 51 46 49 48 46 45 39 37 38 36 34 31 30 28 27 22 22 23 24 22 22 22 21 20 19 18 17 16 17 20 21 20 20 20 20 19 19 18 19 19 19 19 19 19 20
50 54 54 54 52 50 48 49 50 48 38 36 42 38 35 34 33 30 28 24 25 26 26 25 24 23 22 21 20 19 18 18 18 19 20 21 20 19 18 19 19 19 19 19 19 20 20 20 19
47 51 56 56 55 53 48 47 47 48 42 39 44 40 36 34 32 30 31 28 27 28 28 27 26 24 23 22 21 21 20 19 19 21 20 20 20 19 19 18 19 19 19 20 20 20 20 19 19
43 50 49 49 46 44 53 47 49 46 46 45 46 42 37 34 34 33 33 30 29 29 29 27 26 25 24 24 23 23 22 21 20 21 19 18 17 18 20 20 20 20 20 21 21 21 21 22 21
49 47 38 38 37 45 52 55 54 49 45 46 45 43 38 38 34 32 34 33 31 30 30 28 27 27 26 25 25 25 23 22 22 21 19 18 17 18 19 19 21 22 22 23 22 22 23 23 23
51 50 32 40 40 39 39 47 41 47 42 47 45 41 39 39 36 36 35 34 33 31 31 29 29 29 27 28 26 24 24 24 23 21 22 20 20 20 21 21 21 22 23 23 23 23 24 25 26
57 42 48 41 46 44 37 40 44 46 46 46 47 45 42 42 38 37 37 35 33 33 32 31 29 29 28 28 28 25 25 23 22 22 23 23 21 22 23 24 23 23 23 24 25 25 26 27 27
46 50 47 45 46 44 42 46 36 42 50 45 47 45 41 42 37 37 37 36 33 32 32 31 30 30 29 28 27 26 25 25 24 24 24 24 24 22 23 24 23 24 25 25 25 26 26 28 29
40 49 52 50 49 44 35 34 44 31 45 47 46 45 40 41 41 39 36 36 34 35 34 32 31 31 30 28 27 26 26 26 26 25 24 24 26 24 23 23 24 24 27 27 27 28 28 29 31
48 49 47 53 49 48 42 42 28 37 42 47 42 42 41 41 40 38 38 38 37 35 34 33 32 31 30 29 29 29 28 26 26 26 26 26 27 27 26 27 26 26 27 30 30 31 32 31 32
46 46 49 43 45 36 44 42 40 36 42 45 42 40 41 42 42 40 39 39 39 38 35 33 34 33 30 29 31 29 29 28 28 29 29 29 31 30 30 30 29 31 31 32 32 32 32 34 36
49 43 43 41 41 41 39 45 44 43 42 44 44 42 42 42 41 40 39 40 41 38 34 32 32 32 31 31 31 33 31 31 31 31 31 32 32 34 34 33 32 33 35 36 37 38 37 35 38
40 39 36 38 34 41 39 41 40 41 42 45 44 41 41 40 39 39 39 40 39 34 33 33 32 32 33 34 34 33 34 34 33 33 33 32 31 34 35 37 38 37 37 38 40 41 41 41 41
37 39 41 37 40 40 39 41 38 41 42 43 44 41 41 40 40 41 40 42 43 42 38 36 38 36 34 34 36 36 35 35 36 35 35 35 36 36 37 39 41 42 41 41 42 43 42 43 46
38 40 40 40 40 42 41 44 41 42 38 44 43 41 42 42 42 40 40 40 38 38 39 40 39 39 38 38 38 37 36 34 35 36 37 41 42 40 41 41 42 44 43 43 44 45 46 47 47
35 35 38 43 39 40 40 41 41 40 42 38 44 37 39 38 42 42 41 38 38 41 42 40 40 41 41 40 39 38 38 36 35 35 37 42 45 47 45 44 44 45 45 46 46 47 47 49 49
30 34 38 43 42 40 40 42 40 41 42 40 47 40 38 40 39 40 37 36 39 42 41 41 41 41 41 40 39 39 38 38 38 37 38 41 45 47 49 48 46 48 49 51 52 52 50 52 50
30 35 37 39 44 43 41 42 36 38 43 40 40 44 39 35 33 35 34 36 36 39 39 39 38 37 37 37 38 38 38 39 40 41 40 41 43 46 48 50 51 50 51 51 52 54 53 53 54
30 33 33 39 44 47 40 39 38 31 36 41 35 48 39 38 38 33 33 33 34 34 34 34 33 34 33 34 35 37 39 40 41 42 41 41 44 46 46 47 48 49 50 51 52 53 55 56 58
28 33 34 37 45 43 39 42 35 32 34 36 35 42 49 42 39 37 35 35 33 32 32 33 35 36 37 36 37 38 39 40 40 41 42 44 45 46 45 43 44 46 48 51 54 54 55 58 61
22 28 30 35 38 38 39 39 35 32 33 35 32 30 43 43 40 42 40 39 39 38 39 39 40 40 39 39 39 39 39 39 39 42 43 43 44 43 43 44 46 46 48 49 50 52 52 54 59
23 25 25 25 35 40 37 36 35 32 28 28 34 29 30 32 35 37 35 36 36 36 37 39 39 39 38 38 39 38 37 39 42 42 40 41 41 42 43 43 43 44 45 47 48 50 53 57 62
23 26 31 31 28 35 37 35 35 32 28 26 30 30 28 30 31 33 34 35 35 37 37 37 37 37 37 37 37 38 40 42 40 39 39 39 40 39 40 41 39 40 42 41 44 47 52 57 60
23 20 21 26 29 30 32 35 31 30 30 28 28 33 32 32 31 32 34 35 37 37 37 36 35 35 35 35 37 40 39 38 37 38 38 36 36 37 37 37 37 37 39 42 44 44 50 51 54
21 19 25 32 31 30 30 32 29 30 29 29 29 30 31 33 33 33 34 35 35 35 34 34 33 33 35 37 37 36 35 35 35 34 33 34 33 35 33 33 34 37 40 39 41 45 44 45 49
Wind_Direction
210 212 213 214 211 209 208 212 213 212 209 214 221 228 229 236 235 241 238 232 232 236 238 238 240 239 252 267 271 278 283 287 287 285 289 292 292 291 290 290 293 295 296 297 299 302 304 307 309
209 210 212 214 212 208 210 218 217 214 216 208 219 230 229 228 228 235 237 240 241 240 244 243 243 245 253 262 267 267 270 271 276 281 284 287 286 288 290 294 294 296 296 295 296 296 298 300 301
213 208 211 213 213 207 208 217 217 217 214 209 217 223 227 226 226 228 224 234 237 238 243 247 247 247 250 258 265 269 269 272 274 277 282 287 288 291 295 297 299 298 297 299 300 302 303 302 300
221 214 210 212 212 207 210 219 216 213 214 213 219 222 229 225 227 234 228 235 235 239 241 242 245 248 250 252 257 264 272 273 277 281 284 286 289 292 296 298 298 299 303 305 306 306 303 303 304
220 220 214 209 210 209 213 216 222 213 212 214 220 225 225 227 227 229 223 225 227 237 238 243 248 250 252 252 253 256 263 273 280 281 283 287 291 296 297 298 301 303 305 305 303 301 301 301 300
215 219 223 215 209 205 216 216 217 220 216 215 221 224 226 226 227 228 233 225 229 234 240 244 249 252 255 257 258 258 261 266 277 285 289 290 292 296 297 298 299 301 300 299 299 299 297 296 295
214 218 222 220 214 201 210 218 219 216 218 218 225 222 224 226 229 228 232 230 233 238 243 246 249 252 255 257 260 263 268 273 276 284 289 293 294 298 299 300 301 301 301 300 297 295 290 289 290
217 213 214 214 209 211 206 214 219 220 212 217 228 224 224 229 232 232 232 230 234 242 245 248 250 252 255 259 264 268 273 280 286 286 286 290 295 298 297 296 301 301 299 296 294 291 289 289 289
210 211 212 212 217 222 211 208 221 218 220 217 224 224 224 226 229 234 238 236 237 243 248 251 252 252 254 258 265 272 280 286 287 285 285 287 291 294 295 300 299 296 295 293 292 291 291 291 289
212 208 200 209 215 222 221 215 219 213 220 219 225 227 226 229 229 235 238 241 240 242 247 246 248 251 256 263 269 276 282 284 284 286 289 287 289 291 294 296 296 296 294 292 291 291 290 288 288
225 210 214 207 199 205 212 216 216 216 217 223 220 224 226 229 229 234 236 239 242 241 242 243 247 251 256 263 268 275 278 281 283 288 289 292 297 296 292 287 285 289 290 289 288 289 289 289 289
226 218 216 218 208 199 202 225 227 217 218 222 224 223 220 227 226 231 237 239 240 241 240 241 246 255 261 265 270 272 275 279 283 286 291 294 294 291 288 285 283 285 288 289 290 290 289 289 289
221 222 223 223 212 200 214 213 220 222 215 222 222 222 222 225 227 231 236 239 240 242 243 246 249 251 257 262 267 273 276 279 282 285 287 288 289 288 287 288 290 287 282 284 287 289 288 288 290
219 221 225 224 221 213 221 211 213 209 213 220 221 220 219 223 225 227 231 235 240 244 245 248 252 256 259 264 266 269 273 276 278 281 284 285 285 286 285 286 286 286 285 283 281 284 287 289 290
216 221 223 227 229 227 223 213 206 221 222 219 223 225 219 222 227 225 229 233 233 239 247 253 254 258 262 266 269 272 272 272 277 278 278 280 283 284 284 284 285 283 283 286 288 288 287 285 284
220 219 225 226 223 219 221 220 218 215 217 218 222 225 223 221 224 227 227 232 237 238 241 248 256 260 264 266 269 268 272 274 273 276 280 282 284 286 287 288 287 288 288 288 287 284 282 282 281
219 220 229 231 227 224 223 218 228 231 230 223 223 224 224 223 225 226 228 231 236 240 241 246 257 264 265 263 266 269 269 271 272 274 279 284 287 288 289 288 287 286 286 286 284 283 282 279 277
226 230 231 232 230 230 223 223 228 231 231 226 225 226 230 230 231 229 230 234 237 241 248 244 243 253 262 268 267 268 273 273 273 278 279 279 281 285 288 288 288 286 285 285 285 284 283 281 278
221 223 224 225 226 228 228 223 229 231 227 228 227 228 230 232 231 231 231 236 243 246 249 254 256 254 255 258 263 268 269 273 280 280 280 284 284 283 283 283 286 286 286 284 284 284 284 282 281
218 220 225 227 225 227 229 226 226 228 229 226 226 230 231 233 234 234 234 235 240 245 246 249 255 259 261 263 265 265 264 266 272 280 284 285 284 283 284 284 283 283 284 284 284 284 283 281 281
221 226 228 228 228 227 232 232 230 232 234 229 221 229 233 235 237 236 237 238 243 247 248 251 254 258 260 262 264 265 268 268 268 269 273 278 281 285 285 283 283 283 284 284 283 283 282 280 277
226 226 228 229 228 228 232 237 235 229 231 233 219 225 231 234 239 240 242 242 244 248 251 253 255 257 260 262 265 267 269 272 272 272 272 273 276 279 282 284 285 284 284 285 284 284 282 280 279
222 226 231 231 228 230 233 239 231 235 231 235 229 220 230 230 233 239 237 239 242 248 251 254 256 257 258 260 262 265 268 270 273 275 275 274 274 277 279 281 283 284 283 283 284 286 286 284 280
226 231 237 234 230 231 233 236 229 234 231 230 235 224 226 230 231 233 236 238 241 245 247 250 253 255 258 260 263 264 266 268 271 272 275 276 277 278 279 280 283 286 286 286 285 285 285 284 283
229 234 237 237 236 230 232 236 228 231 229 227 231 227 226 231 235 236 241 243 243 248 252 255 261 266 266 265 265 267 269 271 272 274 276 277 278 280 280 282 281 283 285 285 287 288 287 286 284
234 234 243 245 241 236 234 235 230 231 226 223 219 224 229 232 237 242 245 248 252 256 259 262 262 263 262 264 265 267 268 270 273 274 277 278 278 280 282 284 286 286 287 287 287 288 287 286 285
236 237 245 245 239 236 235 236 234 230 230 229 217 226 228 228 232 239 243 245 248 251 254 256 258 260 262 263 264 266 268 270 273 275 275 278 281 283 285 285 285 285 284 284 286 290 292 291 288
242 239 240 241 240 236 232 234 235 234 237 229 223 225 231 234 236 239 243 246 249 252 254 257 259 260 261 262 264 266 269 271 271 272 276 279 282 283 285 285 285 285 289 291 294 296 297 296 298
239 246 243 236 233 234 235 235 235 240 241 234 227 226 231 238 245 248 248 250 253 254 256 258 259 260 262 263 266 269 269 270 274 277 279 280 283 283 284 286 290 294 293 294 296 304 307 303 305
222 234 242 241 231 229 235 237 237 238 242 243 241 240 243 244 249 247 250 252 254 255 257 258 259 260 262 266 267 268 272 274 276 277 278 281 282 283 287 294 298 298 301 299 303 308 308 311 313